User: anonymous   Login
Location: Charbonni�res
(45.9952°N, 2.9982°E)
Time: 04:31:54
(UTC+00:00)
Language:

Geosat - Orbit

View from above orbital plane
View from above orbital plane
View from above satellite
View from above satellite

Ground track
Ground track

The orbit data is extracted from the following two-line orbital elements,

1 15595U 85021A   21058.53866755 -.00000051  00000-0  27785-4 0  9992
2 15595 108.0399  18.4840 0002229 256.8178 103.2715 14.38189921884391
Epoch (UTC): 27 February 2021 12:55:40
Eccentricity: 0.0002229
inclination: 108.0399°
perigee height: 763 km
apogee height: 766 km
right ascension of ascending node: 18.4840°
argument of perigee: 256.8178°
revolutions per day: 14.38189921
mean anomaly at epoch: 103.2715°
orbit number at epoch: 88439

The dashed part of the orbit path shows where the satellite is in the earth's shadow,  

DLR